Tracking 35334 objects as of 12-Sep-2026
HD Live streaming from Space Station
objects crossing your sky now

STARLINK-5339

Track STARLINK-5339 now!
10-day predictions
STARLINK-5339 is classified as:


NORAD ID: 56510
Int'l Code: 2023-065H
Launch date: May 14, 2023
Source: United States (US)
Launch site: AIR FORCE EASTERN TEST RANGE (AFETR)
Your satellite tracking list
Your tracking list is empty




NASA's NSSDC Master Catalog

Two Line Element Set (TLE):
1 56510U 23065H   26255.30234958  .00000479  00000-0  26947-4 0  9999
2 56510  43.0009 238.2645 0001376 265.6524  94.4170 15.27577375185145
Source of the keplerian elements: AFSPC